SL-16 DEB, 22374

Orbit data source: Space-Track

SL-16 DEB, 22374 is space debris in LEO originally from a launch on Fri, 25 Dec 1992 UTC launched from the Tyuratam Missile And Space Complex (TTMTR). Debris objects in space refer to the collection of defunct objects orbiting the Earth. Examples of debris include non-operational satellites, rocket bodies, and fragments generated from explosions, collisions, or faulty payload assembly.

Loading next visibility...
Identifier
22374, 1992-093BP
Orbit
LEO
Country
Flag of CISCIS
Related business
Manufacturer
Unknown
Mission
Spacecraft
Bus & Motor
Unknown
Mass
Unknown
Launch date (UTC)
1992-12-25 (33 years ago)
Launch vehicle
Unknown
Launch site
Tyuratam Missile And Space Complex (TTMTR)
Object type
Payload
Rocket body
Debris
Shape & HBR
Unknown shape, 0.1 m
Radar Cross Section
Small (<0.1 m²)

Expand to show TLE details & history
Last TLE update: 8 hours ago

TLE from 8 hours ago
0 SL-16 DEB
1 22374U 92093BP  25308.08175110  .00001108  00000-0  83146-3 0  9997
2 22374  70.7874 242.0985 0169422  98.1039 280.1889 13.90117408655430
Epoch: 2025-11-04T01:57Z
TLE epoch observation values (Epoch: 2025-11-04T01:57:43.295Z)
Latitude
15.42722°
Longitude
174.58366°
Altitude
910.032 km
Speed
7.409 km/s
True Right ascension
16h 30m 21s
True Declination
15° 20' 28"
Sunlit
Object was in daylight at epoch
Visualization orbit readout
Latitude
Unknown
Longitude
Unknown
Altitude
Unknown
Speed
Unknown
Apparent Right ascension
Unknown
Apparent Declination
Unknown
Sunlit
N/A
Visualization observer readout
Local Sidereal Time
06:19:49
Azimuth
Unknown
Elevation
Unknown
Doppler factor
Unknown
Orbital elements
Apogee altitude
1,049.94 km
Perigee altitude
802.437 km
Semi-major axis
7,304.326 km
Eccentricity
0.01694
Inclination
70.7874°
RAAN
242.0985°
Arg. of periapsis
98.1039°
True anomaly
278.27126°
Mean anomaly
280.1889°
Eccentric anomaly
279.23075°
Mean motion
3.47675 °/min
Orbital period
103.55 mins
BSTAR
0.00083146
Loading maneuver chart data...
Computing Atmospheric mass density...

Documentation

Showing up to 5 results
|